Torna al catalogo

COSMOS 2251 DEB

AttivoLEO
NORAD 34685·DEBRIS·🇷🇺 Russia

Lanciato Jun 16, 1993 da Plesetsk Cosmodrome

Loading…

Prossimi Passaggi (prossime 24 ore)

TLE

AggiornatoSource: Space-Track

Epoca: Sep 14, 2026, 06:11 UTC

1 34685U 93036YF  26257.25819338  .00001957  00000-0  41806-3 0  9992
2 34685  74.0305 343.9418 0014271  12.2387  18.6016 14.59484699925497

Traccia COSMOS 2251 DEB in tempo reale con AllMySat

Download on the App Store